Hourly Weather Barreirinha

Today, 19 April, Monday

Time Temperature Precipitation Wind Pressure Humidity
00:00 +24°C° 0.5 mm 1 mps 758 mmHg 99%
01:00 +24°C° 0.5 mm 1 mps 758 mmHg 99%
02:00 +24°C° 0.5 mm 1 mps 757 mmHg 99%
03:00 +24°C° 0.3 mm 1 mps 757 mmHg 99%
04:00 +24°C° 0.3 mm 1 mps 757 mmHg 99%
05:00 +24°C° 0.3 mm 1 mps 757 mmHg 99%
06:00 +24°C° 0.3 mm 1 mps 758 mmHg 99%
07:00 +24°C° 0.3 mm 1 mps 758 mmHg 98%
08:00 +25°C° 0.3 mm 1 mps 759 mmHg 98%
09:00 +25°C° 0 mm 1 mps 759 mmHg 96%
10:00 +25°C° 0 mm 1 mps 759 mmHg 95%
11:00 +26°C° 0 mm 1 mps 759 mmHg 93%
12:00 +26°C° 0 mm 1 mps 758 mmHg 90%
13:00 +27°C° 0 mm 1 mps 758 mmHg 86%
14:00 +28°C° 0 mm 1 mps 757 mmHg 82%
15:00 +27°C° 0.1 mm 1 mps 757 mmHg 83%
16:00 +27°C° 0.1 mm 1 mps 756 mmHg 84%
17:00 +27°C° 0.1 mm 1 mps 756 mmHg 85%
18:00 +24°C° 0 mm 0 mps 757 mmHg 88%
19:00 +24°C° 0 mm 0 mps 757 mmHg 91%
20:00 +23°C° 0 mm 0 mps 758 mmHg 95%
21:00 +22°C° 0 mm 0 mps 758 mmHg 95%
22:00 +22°C° 0 mm 0 mps 758 mmHg 96%
23:00 +22°C° 0 mm 0 mps 758 mmHg 97%

Tomorrow, 20 April, Tuesday

Time Temperature Precipitation Wind Pressure Humidity
00:00 +22°C° 0 mm 0 mps 758 mmHg 97%
01:00 +22°C° 0 mm 0 mps 757 mmHg 98%
02:00 +22°C° 0 mm 0 mps 756 mmHg 98%
03:00 +22°C° 0 mm 0 mps 757 mmHg 98%
04:00 +21°C° 0 mm 0 mps 757 mmHg 98%
05:00 +21°C° 0 mm 0 mps 757 mmHg 98%
06:00 +23°C° 0 mm 0 mps 758 mmHg 93%
07:00 +24°C° 0 mm 0 mps 758 mmHg 89%
08:00 +25°C° 0 mm 0 mps 759 mmHg 84%
09:00 +26°C° 0.1 mm 0 mps 759 mmHg 78%
10:00 +28°C° 0.1 mm 0 mps 759 mmHg 73%
11:00 +29°C° 0.1 mm 0 mps 758 mmHg 67%
12:00 +29°C° 1.3 mm 0 mps 758 mmHg 72%
13:00 +28°C° 1.3 mm 0 mps 757 mmHg 77%
14:00 +28°C° 1.3 mm 0 mps 756 mmHg 81%
15:00 +27°C° 1.5 mm 0 mps 756 mmHg 85%
16:00 +26°C° 1.5 mm 0 mps 756 mmHg 89%
17:00 +26°C° 1.5 mm 0 mps 755 mmHg 92%
18:00 +25°C° 0.8 mm 0 mps 756 mmHg 93%
19:00 +26°C° 0.8 mm 1 mps 757 mmHg 95%
20:00 +25°C° 0.8 mm 1 mps 757 mmHg 96%
21:00 +25°C° 0.1 mm 1 mps 758 mmHg 96%
22:00 +25°C° 0.1 mm 1 mps 758 mmHg 97%
23:00 +25°C° 0.1 mm 1 mps 758 mmHg 97%

Day after tomorrow, 21 April, Wednesday

Time Temperature Precipitation Wind Pressure Humidity
00:00 +25°C° 0.6 mm 1 mps 758 mmHg 97%
01:00 +25°C° 0.6 mm 1 mps 757 mmHg 98%
02:00 +24°C° 0.6 mm 1 mps 757 mmHg 98%
03:00 +24°C° 0.8 mm 1 mps 757 mmHg 98%
04:00 +24°C° 0.8 mm 1 mps 757 mmHg 98%
05:00 +24°C° 0.8 mm 1 mps 757 mmHg 98%
06:00 +25°C° 0.5 mm 1 mps 758 mmHg 98%
07:00 +25°C° 0.5 mm 1 mps 758 mmHg 98%
08:00 +25°C° 0.5 mm 1 mps 759 mmHg 98%
09:00 +25°C° 0.9 mm 1 mps 759 mmHg 97%
10:00 +25°C° 0.9 mm 1 mps 759 mmHg 97%
11:00 +26°C° 0.9 mm 1 mps 759 mmHg 97%
12:00 +26°C° 0.3 mm 1 mps 758 mmHg 93%
13:00 +27°C° 0.3 mm 1 mps 757 mmHg 90%
14:00 +28°C° 0.3 mm 1 mps 756 mmHg 86%
15:00 +27°C° 0.2 mm 1 mps 756 mmHg 87%
16:00 +27°C° 0.2 mm 1 mps 756 mmHg 89%
17:00 +27°C° 0.2 mm 1 mps 756 mmHg 90%
18:00 +26°C° 0 mm 1 mps 756 mmHg 92%
19:00 +24°C° 0 mm 0 mps 757 mmHg 94%
20:00 +23°C° 0 mm 0 mps 758 mmHg 96%
21:00 +23°C° 0 mm 0 mps 758 mmHg 96%
22:00 +23°C° 0 mm 0 mps 758 mmHg 96%
23:00 +25°C° 0 mm 1 mps 758 mmHg 96%

22 April, Thursday

Time Temperature Precipitation Wind Pressure Humidity
00:00 +23°C° 0 mm 0 mps 758 mmHg 96%
01:00 +23°C° 0 mm 0 mps 757 mmHg 96%
02:00 +23°C° 0 mm 0 mps 757 mmHg 97%
03:00 +24°C° 0.1 mm 1 mps 757 mmHg 97%
04:00 +24°C° 0.1 mm 1 mps 757 mmHg 97%
05:00 +24°C° 0.1 mm 1 mps 757 mmHg 97%
06:00 +25°C° 0 mm 1 mps 758 mmHg 94%
07:00 +26°C° 0 mm 1 mps 758 mmHg 91%
08:00 +27°C° 0 mm 1 mps 759 mmHg 87%
09:00 +28°C° 0.1 mm 1 mps 759 mmHg 81%
10:00 +30°C° 0.1 mm 1 mps 759 mmHg 74%
11:00 +31°C° 0.1 mm 1 mps 758 mmHg 67%
12:00 +31°C° 0.7 mm 1 mps 757 mmHg 69%
13:00 +31°C° 0.7 mm 1 mps 756 mmHg 71%
14:00 +31°C° 0.7 mm 1 mps 755 mmHg 73%
15:00 +30°C° 1 mm 1 mps 755 mmHg 78%
16:00 +29°C° 1 mm 1 mps 755 mmHg 83%
17:00 +28°C° 1 mm 1 mps 755 mmHg 88%
18:00 +27°C° 0.3 mm 1 mps 755 mmHg 91%
19:00 +26°C° 0.3 mm 1 mps 756 mmHg 93%
20:00 +26°C° 0.3 mm 1 mps 757 mmHg 96%
21:00 +26°C° 0.2 mm 1 mps 757 mmHg 96%
22:00 +26°C° 0.2 mm 1 mps 757 mmHg 96%
23:00 +24°C° 0.2 mm 0 mps 757 mmHg 95%

23 April, Friday

Time Temperature Precipitation Wind Pressure Humidity
00:00 +23°C° 0 mm 0 mps 757 mmHg 96%
01:00 +23°C° 0 mm 0 mps 756 mmHg 96%
02:00 +23°C° 0 mm 0 mps 756 mmHg 97%
03:00 +23°C° 0.3 mm 0 mps 756 mmHg 97%
04:00 +23°C° 0.3 mm 0 mps 756 mmHg 97%
05:00 +22°C° 0.3 mm 0 mps 757 mmHg 98%
06:00 +25°C° 0.9 mm 1 mps 757 mmHg 96%
07:00 +26°C° 0.9 mm 1 mps 758 mmHg 95%
08:00 +27°C° 0.9 mm 1 mps 759 mmHg 94%
09:00 +27°C° 1.1 mm 2 mps 759 mmHg 91%
10:00 +28°C° 1.1 mm 2 mps 758 mmHg 89%
11:00 +29°C° 1.1 mm 2 mps 758 mmHg 86%
12:00 +29°C° 0.7 mm 2 mps 757 mmHg 86%
13:00 +28°C° 0.7 mm 1 mps 756 mmHg 87%
14:00 +28°C° 0.7 mm 1 mps 755 mmHg 87%
15:00 +28°C° 0 mm 1 mps 755 mmHg 87%
16:00 +28°C° 0 mm 1 mps 755 mmHg 87%
17:00 +26°C° 0 mm 0 mps 754 mmHg 86%
18:00 +25°C° 0.1 mm 0 mps 755 mmHg 88%
19:00 +24°C° 0.1 mm 0 mps 756 mmHg 90%
20:00 +23°C° 0.1 mm 0 mps 756 mmHg 92%
21:00 +23°C° 0.2 mm 0 mps 756 mmHg 94%
22:00 +25°C° 0.2 mm 1 mps 756 mmHg 95%
23:00 +25°C° 0.2 mm 1 mps 757 mmHg 96%

24 April, Saturday

Time Temperature Precipitation Wind Pressure Humidity
00:00 +25°C° 1.8 mm 1 mps 756 mmHg 97%
01:00 +25°C° 1.8 mm 1 mps 756 mmHg 98%
02:00 +22°C° 1.8 mm 0 mps 755 mmHg 98%
03:00 +24°C° 1 mm 1 mps 755 mmHg 99%
04:00 +24°C° 1 mm 1 mps 756 mmHg 99%
05:00 +24°C° 1 mm 1 mps 756 mmHg 99%
06:00 +25°C° 0.8 mm 1 mps 757 mmHg 98%
07:00 +25°C° 0.8 mm 1 mps 757 mmHg 97%
08:00 +26°C° 0.8 mm 1 mps 758 mmHg 95%
09:00 +27°C° 0.3 mm 1 mps 758 mmHg 91%
10:00 +28°C° 0.3 mm 2 mps 758 mmHg 86%
11:00 +29°C° 0.3 mm 2 mps 758 mmHg 81%
12:00 +30°C° 0.7 mm 2 mps 757 mmHg 80%
13:00 +30°C° 0.7 mm 2 mps 756 mmHg 79%
14:00 +30°C° 0.7 mm 2 mps 755 mmHg 78%
15:00 +30°C° 0 mm 1 mps 755 mmHg 78%
16:00 +30°C° 0 mm 1 mps 754 mmHg 79%
17:00 +28°C° 0 mm 0 mps 754 mmHg 79%
18:00 +26°C° 0 mm 0 mps 754 mmHg 84%
19:00 +25°C° 0 mm 0 mps 755 mmHg 88%
20:00 +24°C° 0 mm 0 mps 755 mmHg 92%
21:00 +24°C° 0 mm 0 mps 756 mmHg 93%
22:00 +24°C° 0 mm 0 mps 756 mmHg 94%
23:00 +24°C° 0 mm 0 mps 756 mmHg 95%
Show more